[[{"header":{"parameterUnit":"m.s-1","parameterCategory":1,"la1":30.2991,"la2":30.254,"lo1":-89.0895,"lo2":-89.0444,"dy":0.0017,"dx":0.0017,"nx":28,"ny":28,"refTime":"2025-06-16T21:00:00:Z","depth":0,"parameterNumber":2,"parameterNumberName":"U-component_of_WINDS"},"data":[0,0,0,0,0,0,0,0,0,0,0,0,0,0,0,0,0,0,0,0,0,0,0,0,0,0,0,0,0,0,0,0,0,0,0,0,0,0,0,0,0,0,0,0,0,0,0,0,0,0,0,0,0,0,0,0,0,0,2.1237,2.1236,0,2.1206,2.1205,2.1205,2.1195,2.1195,2.1195,2.1195,2.1162,2.1161,2.116,0,0,0,0,0,0,0,0,0,0,0,0,0,2.1285,2.1285,2.1237,2.1236,2.1236,2.1206,2.1205,2.1205,2.1195,2.1195,2.1195,2.1195,2.1163,2.1161,2.116,0,0,0,0,0,0,0,0,0,0,0,0,0,2.126,2.1284,2.1237,2.1227,2.1226,2.1206,2.1205,2.1205,2.1195,2.1195,2.1195,2.1196,2.1163,2.1162,2.116,2.1146,0,0,2.1155,2.1155,0,0,0,0,0,0,0,0,2.1262,2.1259,2.1229,2.1228,2.1227,2.1205,2.121,2.1185,2.1195,2.1207,2.1195,2.1196,2.1176,2.1174,2.1167,2.1145,2.1143,2.1155,2.1154,2.1154,2.1153,0,0,0,0,0,0,0,2.1264,2.126,2.1224,2.1229,2.1227,2.1224,2.1221,2.1206,2.1191,2.1206,2.1205,2.1202,2.1175,2.1169,2.1166,2.1143,2.1155,2.1154,2.1153,2.1152,2.1107,2.1107,0,0,0,0,0,0,2.1267,2.1261,2.1225,2.1224,2.1245,2.1223,2.1219,2.1211,2.1191,2.1188,2.1201,2.1201,2.1171,2.1168,2.1165,2.1147,2.1154,2.1152,2.1151,2.1107,2.1107,2.1106,0,0,0,0,0,0,2.1268,2.1264,2.1227,2.1242,2.1237,2.1222,2.1213,2.1211,2.1204,2.1187,2.1185,2.1197,2.1171,2.1167,2.1151,2.1146,2.1152,2.115,2.1108,2.1107,2.1107,2.1111,0,0,0,0,0,0,2.127,2.1265,2.126,2.1242,2.1236,2.1214,2.1213,2.121,2.1201,2.1201,2.1183,2.118,2.1171,2.1153,2.115,2.1144,2.1149,2.1108,2.1107,2.1107,2.1111,2.1111,2.1111,0,0,0,0,0,2.1271,2.1262,2.1259,2.1255,2.123,2.1213,2.121,2.12,2.1201,2.1196,2.1185,2.1181,2.1147,2.1152,2.1147,2.1141,2.1108,2.1107,2.1107,2.1112,2.1111,2.1111,0,0,0,0,0,0,2.1279,2.126,2.1257,2.1241,2.1229,2.1212,2.1205,2.12,2.1187,2.1187,2.1175,2.1171,2.1156,2.1147,2.1152,2.1126,2.1127,2.1126,2.1133,2.1132,2.1131,2.1134,2.1148,0,0,0,0,0,2.1279,2.1267,2.1251,2.1239,2.1233,2.122,2.1212,2.1206,2.1193,2.1187,2.1175,2.1162,2.1149,2.114,2.1127,2.111,2.1106,2.1104,2.1103,2.1103,2.1102,2.1091,2.109,2.1104,2.1104,2.1104,0,0,2.1278,2.1267,2.126,2.124,2.123,2.1218,2.1216,2.1203,2.1194,2.1185,2.1169,2.116,2.1144,2.1128,2.112,2.112,2.1097,2.1102,2.1102,2.1101,2.1091,2.1089,2.1088,2.1104,2.1104,2.1104,0,0,2.1271,2.1262,2.125,2.124,2.1225,2.1216,2.1213,2.1196,2.119,2.1174,2.1167,2.1155,2.1132,2.1121,2.1113,2.1101,2.1096,2.1097,2.1094,2.1084,2.1083,2.1082,2.1077,2.1076,2.1096,2.1096,2.1096,0,2.1273,2.1255,2.1245,2.1232,2.1224,2.1216,2.1204,2.1194,2.1175,2.1169,2.1169,2.114,2.1129,2.1109,2.1106,2.11,2.1096,2.1099,2.1084,2.1083,2.1082,2.1077,2.1075,2.1096,2.1096,2.1096,2.1096,0,2.1256,2.1244,2.1236,2.1218,2.1209,2.1197,2.1184,2.1176,2.117,2.1161,2.1144,2.113,2.1114,2.1109,2.1103,2.1088,2.1088,2.1087,2.1088,2.1081,2.1076,2.1074,2.1096,2.1096,2.1096,2.1096,0,0,2.1253,2.123,2.1227,2.1219,2.1201,2.119,2.1178,2.1162,2.1154,2.1141,2.1129,2.111,2.1108,2.1098,2.1091,2.1083,2.1073,2.1082,2.1081,2.108,2.1054,2.1055,2.1053,2.107,2.1069,2.1069,2.1055,0,2.1243,2.122,2.1211,2.1192,2.118,2.1172,2.116,2.1148,2.1139,2.1127,2.1117,2.1103,2.1102,2.1096,2.1087,2.1076,2.1067,2.1077,2.1058,2.1057,2.1061,2.1051,2.1051,2.1039,2.1053,2.1053,2.1053,0,2.1229,2.1216,2.1196,2.1179,2.1173,2.1163,2.1147,2.1136,2.1121,2.1115,2.1104,2.1097,2.1082,2.1085,2.1064,2.107,2.1062,2.1055,2.1054,2.1052,2.1054,2.1047,2.1035,2.1033,2.105,2.105,2.105,0,2.1227,2.1205,2.119,2.1183,2.1163,2.1155,2.1147,2.1132,2.1123,2.1109,2.1103,2.1087,2.1078,2.1066,2.1055,2.1058,2.1035,2.1036,2.1029,2.1029,2.1024,2.1024,2.101,2.102,2.102,2.102,2.102,0,2.1217,2.1205,2.1189,2.1179,2.1165,2.1154,2.114,2.1131,2.1118,2.1106,2.1098,2.1087,2.1073,2.106,2.1051,2.1035,2.1031,2.1025,2.1023,2.1025,2.1026,2.1019,2.1019,2.1019,2.1019,2.1019,2.102,0,2.1213,2.1202,2.1184,2.1167,2.1162,2.1152,2.1137,2.1127,2.1118,2.1102,2.1098,2.1083,2.1067,2.1055,2.1035,2.1029,2.1011,2.1009,2.1016,2.1014,2.1007,2.1007,2.0987,2.0983,2.0997,2.0997,2.0997,0,2.1206,2.1197,2.1178,2.117,2.1161,2.1148,2.1138,2.1127,2.1117,2.1099,2.1091,2.1075,2.1061,2.1036,2.1023,2.1006,2.1003,2.0997,2.1001,2.1003,2.1002,2.1002,2.1001,2.0997,2.0997,2.0996,2.0996,0,2.1196,2.1191,2.1178,2.1162,2.1151,2.1139,2.1126,2.1119,2.1105,2.1094,2.1078,2.1067,2.1046,2.1029,2.1012,2.1002,2.0996,2.0996,2.0993,2.0995,2.0999,2.0995,2.1013,2.0996,2.0996,2.0996,2.0996,2.0996,2.119,2.1181,2.1166,2.1151,2.114,2.1128,2.1118,2.1107,2.1094,2.1075,2.107,2.1052,2.1037,2.1013,2.1003,2.0989,2.0989,2.0985,2.0984,2.0983,2.0982,2.1002,2.0986,2.0986,2.0986,2.0986,2.0986,0,2.1179,2.1169,2.1155,2.1137,2.1126,2.1122,2.1107,2.1097,2.1082,2.1069,2.1055,2.1036,2.1019,2.1005,2.0988,2.0979,2.0976,2.0975,2.0975,2.0973,2.0984,2.0988,2.0978,2.0978,2.0978,2.0978,2.0978,2.0978,2.1171,2.1155,2.1148,2.1126,2.1116,2.1099,2.1091,2.1079,2.1068,2.1047,2.1034,2.1024,2.101,2.0992,2.0976,2.0972,2.0966,2.0965,2.096,2.0971,2.0972,2.0973,2.0976,2.0964,2.0964,2.095,2.095,2.095]},{"header":{"parameterUnit":"m.s-1","parameterCategory":1,"la1":30.2991,"la2":30.254,"lo1":-89.0895,"lo2":-89.0444,"dy":0.0017,"dx":0.0017,"nx":28,"ny":28,"refTime":"2025-06-16T21:00:00:Z","depth":0,"parameterNumber":3,"parameterNumberName":"V-component_of_WINDS"},"data":[0,0,0,0,0,0,0,0,0,0,0,0,0,0,0,0,0,0,0,0,0,0,0,0,0,0,0,0,0,0,0,0,0,0,0,0,0,0,0,0,0,0,0,0,0,0,0,0,0,0,0,0,0,0,0,0,0,0,5.4268,5.4269,0,5.4373,5.4374,5.4375,5.4407,5.4407,5.4406,5.4406,5.4505,5.4508,5.4511,0,0,0,0,0,0,0,0,0,0,0,0,0,5.409,5.4093,5.4268,5.4269,5.4271,5.4372,5.4374,5.4375,5.4407,5.4407,5.4406,5.4405,5.4504,5.4508,5.4512,0,0,0,0,0,0,0,0,0,0,0,0,0,5.4178,5.4094,5.4268,5.4299,5.4303,5.4372,5.4374,5.4376,5.4407,5.4407,5.4406,5.4405,5.4503,5.4507,5.4512,5.4555,0,0,5.4526,5.4528,0,0,0,0,0,0,0,0,5.4173,5.4184,5.4293,5.4297,5.4302,5.4376,5.4348,5.4436,5.4408,5.4367,5.4406,5.4405,5.4462,5.447,5.4491,5.456,5.4564,5.4527,5.4529,5.4531,5.4533,0,0,0,0,0,0,0,5.4167,5.418,5.4309,5.4295,5.43,5.4306,5.4318,5.4364,5.4417,5.4371,5.4374,5.4386,5.4464,5.4487,5.4494,5.4566,5.4527,5.4531,5.4534,5.4535,5.4676,5.4677,0,0,0,0,0,0,5.4156,5.4175,5.4306,5.4312,5.4234,5.431,5.4323,5.4353,5.4417,5.4426,5.4386,5.4387,5.4479,5.4488,5.4497,5.4554,5.4531,5.4536,5.4538,5.4675,5.4677,5.4678,0,0,0,0,0,0,5.4152,5.4168,5.4302,5.4244,5.4262,5.4314,5.4347,5.4355,5.4378,5.4429,5.4438,5.44,5.4479,5.4491,5.4542,5.4557,5.4538,5.4542,5.4674,5.4676,5.4677,5.4665,0,0,0,0,0,0,5.4147,5.4166,5.4184,5.4245,5.4265,5.4346,5.4348,5.4358,5.4387,5.4388,5.4444,5.4452,5.4479,5.4534,5.4546,5.4563,5.4546,5.4673,5.4675,5.4677,5.4664,5.4666,5.4667,0,0,0,0,0,5.4141,5.4175,5.4185,5.4201,5.4289,5.4347,5.4358,5.4391,5.4388,5.4406,5.4439,5.4451,5.4554,5.4539,5.4553,5.4572,5.4672,5.4674,5.4677,5.4664,5.4666,5.4667,0,0,0,0,0,0,5.4112,5.4183,5.4196,5.4251,5.4293,5.4352,5.4376,5.4391,5.4433,5.4433,5.4469,5.4481,5.4529,5.4555,5.4538,5.4618,5.4613,5.4618,5.4599,5.4601,5.4603,5.4595,5.455,0,0,0,0,0,5.4113,5.4156,5.4215,5.4258,5.4279,5.4324,5.435,5.4372,5.4415,5.4432,5.4469,5.4509,5.4551,5.4577,5.4618,5.4668,5.4681,5.4688,5.4689,5.469,5.4694,5.4723,5.4727,5.4685,5.4685,5.4685,0,0,5.4114,5.4158,5.4182,5.4253,5.4288,5.433,5.4338,5.4382,5.4413,5.4438,5.449,5.4518,5.4565,5.4616,5.464,5.4639,5.4709,5.4693,5.4693,5.4697,5.4726,5.473,5.4733,5.4686,5.4686,5.4686,0,0,5.4137,5.4175,5.4216,5.4252,5.4306,5.4336,5.4346,5.4403,5.4424,5.4477,5.4497,5.4533,5.4604,5.4637,5.4663,5.4701,5.4713,5.4713,5.4721,5.4749,5.4752,5.4755,5.4769,5.4774,5.4716,5.4716,5.4716,0,5.413,5.4197,5.4234,5.4278,5.4308,5.4336,5.4377,5.4409,5.4472,5.4492,5.4491,5.4582,5.4615,5.4675,5.4684,5.4704,5.4716,5.4707,5.4749,5.4752,5.4756,5.477,5.4775,5.4716,5.4716,5.4716,5.4716,0,5.4187,5.4232,5.4258,5.4323,5.4356,5.4398,5.4439,5.4468,5.4487,5.4517,5.457,5.4611,5.4662,5.4678,5.4695,5.474,5.4738,5.4742,5.4739,5.4759,5.4773,5.4778,5.4716,5.4716,5.4716,5.4716,0,0,5.4194,5.4281,5.4289,5.432,5.4382,5.4417,5.4459,5.4512,5.4536,5.4579,5.4615,5.4675,5.4681,5.471,5.4732,5.4756,5.4784,5.4758,5.4759,5.4762,5.4837,5.4833,5.4839,5.4793,5.4794,5.4795,5.4833,0,5.4226,5.4307,5.4342,5.4406,5.4448,5.4476,5.4513,5.4554,5.4583,5.4622,5.4653,5.4696,5.4699,5.4717,5.4743,5.4776,5.48,5.4773,5.4826,5.4827,5.4814,5.4846,5.4842,5.4876,5.4838,5.4839,5.484,0,5.4274,5.4321,5.439,5.4449,5.4468,5.4501,5.4553,5.459,5.4637,5.4656,5.469,5.4711,5.4755,5.4749,5.481,5.4792,5.4815,5.4834,5.4837,5.4843,5.4835,5.4853,5.4887,5.4893,5.4848,5.4848,5.4847,0,5.4274,5.4353,5.4406,5.443,5.45,5.4523,5.4552,5.4599,5.4629,5.4673,5.4692,5.4739,5.4765,5.4801,5.4834,5.4826,5.4892,5.4888,5.4908,5.4907,5.4921,5.4919,5.496,5.4935,5.4935,5.4935,5.4935,0,5.4306,5.4347,5.4407,5.4439,5.4485,5.4524,5.4569,5.46,5.4642,5.4679,5.4704,5.4738,5.4779,5.4818,5.4844,5.4891,5.4902,5.4918,5.4924,5.4916,5.4914,5.4932,5.493,5.4936,5.4936,5.4936,5.4935,0,5.4313,5.4355,5.4414,5.4476,5.4493,5.4524,5.4577,5.4608,5.4639,5.4686,5.4699,5.4746,5.4793,5.483,5.489,5.4907,5.4957,5.4963,5.4942,5.4945,5.4964,5.4962,5.5017,5.5027,5.4995,5.4995,5.4995,0,5.4331,5.4364,5.4431,5.446,5.449,5.4535,5.4566,5.4605,5.4636,5.4694,5.4718,5.4767,5.4809,5.4883,5.4921,5.4967,5.4976,5.4992,5.4982,5.4974,5.4977,5.4975,5.4978,5.4993,5.4993,5.4993,5.4993,0,5.4359,5.4379,5.4424,5.4478,5.4515,5.4558,5.4601,5.4622,5.4669,5.4703,5.4753,5.4786,5.4849,5.4897,5.4948,5.4976,5.4992,5.4996,5.5003,5.4995,5.4982,5.499,5.4946,5.4994,5.4994,5.4994,5.4994,5.4994,5.4373,5.4404,5.4457,5.4507,5.4544,5.4585,5.4618,5.4654,5.4698,5.4754,5.4774,5.4825,5.4872,5.4942,5.4971,5.5011,5.5011,5.5021,5.5024,5.5026,5.5026,5.4976,5.502,5.502,5.502,5.502,5.502,0,5.4403,5.4439,5.4485,5.4546,5.4586,5.46,5.4649,5.468,5.4726,5.477,5.4811,5.4869,5.4917,5.496,5.5009,5.5032,5.5041,5.5044,5.5043,5.5049,5.5022,5.5012,5.5036,5.5036,5.5036,5.5036,5.5036,5.5036,5.4423,5.4477,5.4503,5.4576,5.461,5.4664,5.469,5.4727,5.4763,5.4827,5.4868,5.4897,5.494,5.4992,5.5036,5.5048,5.5065,5.5066,5.5079,5.5053,5.5051,5.5049,5.5039,5.5069,5.5069,5.5103,5.5103,5.5103]}]]